Date String (YYYY-MM-DD hh:mm:ss) UTC,Instrument flags,Ambient pressure (hPa),Sample flow (lpm),Bypass flow (lpm),Sample temperature (°C),Ambient temperature (°C),ASC tube jacket temperature (°C),LED temperature (°C),Box temperature (°C),Sample RH (%),Span deviation,Mass concentration (μg/m³),Mass concentration (μg/m³),Mass concentration (μg/m³)
DateTimeUTC,F1_M11,P_M11,Q1_M11,Q2_M11,T1_M11,T2_M11,T3_M11,T4_M11,T5_M11,U1_M11,ZSPAN_M11,X0_M11,X2_M11,X1_M11
2022-08-06 12:00:00,,0829.8,4.99,0.00,29.5,28.0,00.0,38.4,31.4,34.3,0000.0,0009.26,0004.58,0003.69
2022-08-06 12:01:00,,0829.7,5.01,0.00,29.5,28.1,00.0,38.4,31.4,34.3,0000.0,0009.21,0004.59,0003.71
2022-08-06 12:02:00,,0829.7,5.00,0.00,29.5,28.2,00.0,38.4,31.5,34.3,0000.0,0009.12,0004.56,0003.71
2022-08-06 12:03:00,,0829.7,5.00,0.00,29.6,28.3,00.0,38.4,31.5,34.3,0000.0,0008.94,0004.52,0003.72
2022-08-06 12:04:00,,0829.7,4.99,0.00,29.6,28.4,00.0,38.4,31.5,34.2,0000.0,0008.80,0004.50,0003.73
2022-08-06 12:05:00,,0829.7,5.02,0.00,29.6,28.5,00.0,38.4,31.6,34.2,0000.0,0008.45,0004.44,0003.73
2022-08-06 12:06:00,,0829.8,5.00,0.00,29.6,28.6,00.0,38.4,31.6,34.1,0000.0,0008.36,0004.44,0003.74
2022-08-06 12:07:00,,0829.8,5.00,0.00,29.7,28.6,00.0,38.4,31.6,34.1,0000.0,0008.84,0004.46,0003.75
2022-08-06 12:08:00,,0829.7,4.99,0.00,29.7,28.7,00.0,38.4,31.7,34.0,0000.0,0008.81,0004.43,0003.76
2022-08-06 12:09:00,,0829.8,4.99,0.00,29.7,28.8,00.0,38.4,31.7,34.0,0000.0,0008.67,0004.45,0003.77
2022-08-06 12:10:00,,0829.8,5.00,0.00,29.7,28.8,00.0,38.5,31.7,33.9,0000.0,0009.40,0004.49,0003.78
2022-08-06 12:11:00,,0829.8,5.01,0.00,29.8,28.6,00.0,38.5,31.7,33.9,0000.0,0009.50,0004.53,0003.80
2022-08-06 12:12:00,,0829.7,5.00,0.00,29.7,27.9,00.0,38.4,31.5,33.9,0000.0,0009.52,0004.54,0003.80
2022-08-06 12:13:00,,0829.7,5.01,0.00,29.7,27.5,00.0,38.4,31.5,34.2,0000.0,0009.54,0004.57,0003.82
2022-08-06 12:14:00,,0829.7,4.99,0.00,29.6,27.5,00.0,38.4,31.3,34.3,0000.0,0009.58,0004.57,0003.81
2022-08-06 12:15:00,,0829.7,5.02,0.00,29.5,27.6,00.0,38.4,31.3,34.4,0000.0,0009.84,0004.57,0003.82
2022-08-06 12:16:00,,0829.7,4.99,0.00,29.5,27.7,00.0,38.4,31.3,34.4,0000.0,0009.99,0004.61,0003.83
2022-08-06 12:17:00,,0829.8,5.00,0.00,29.5,27.8,00.0,38.4,31.4,34.5,0000.0,0009.72,0004.61,0003.83
2022-08-06 12:18:00,,0829.8,5.01,0.00,29.5,28.0,00.0,38.4,31.4,34.5,0000.0,0009.75,0004.59,0003.84
2022-08-06 12:19:00,,0829.8,5.00,0.00,29.5,28.1,00.0,38.4,31.4,34.4,0000.0,0009.79,0004.58,0003.83
2022-08-06 12:20:00,,0829.8,5.01,0.00,29.6,28.2,00.0,38.4,31.5,34.4,0000.0,0009.85,0004.58,0003.82
2022-08-06 12:21:00,,0829.8,5.00,0.00,29.6,28.3,00.0,38.4,31.5,34.4,0000.0,0009.48,0004.59,0003.83
2022-08-06 12:22:00,,0829.8,5.00,0.00,29.6,28.4,00.0,38.4,31.5,34.4,0000.0,0009.48,0004.63,0003.84
2022-08-06 12:23:00,,0829.8,5.00,0.00,29.6,28.5,00.0,38.4,31.6,34.3,0000.0,0009.54,0004.64,0003.85
2022-08-06 12:24:00,,0829.8,5.00,0.00,29.6,28.6,00.0,38.4,31.6,34.3,0000.0,0009.65,0004.66,0003.84
2022-08-06 12:25:00,,0829.8,4.99,0.00,29.7,28.6,00.0,38.4,31.6,34.2,0000.0,0009.74,0004.69,0003.84
2022-08-06 12:26:00,,0829.9,5.01,0.00,29.7,28.7,00.0,38.4,31.7,34.2,0000.0,0009.52,0004.68,0003.85
2022-08-06 12:27:00,,0829.9,5.01,0.00,29.7,28.7,00.0,38.5,31.7,34.2,0000.0,0009.35,0004.66,0003.85
2022-08-06 12:28:00,,0829.9,5.00,0.00,29.7,28.8,00.0,38.5,31.7,34.1,0000.0,0009.25,0004.62,0003.85
2022-08-06 12:29:00,,0829.8,5.00,0.00,29.8,28.3,00.0,38.5,31.6,34.1,0000.0,0008.89,0004.65,0003.86
2022-08-06 12:30:00,,0829.9,5.00,0.00,29.7,27.7,00.0,38.4,31.5,34.1,0000.0,0008.88,0004.68,0003.88
2022-08-06 12:31:00,,0829.9,4.99,0.00,29.7,27.5,00.0,38.4,31.4,34.2,0000.0,0008.95,0004.72,0003.89
2022-08-06 12:32:00,,0829.9,5.01,0.00,29.6,27.5,00.0,38.4,31.3,34.3,0000.0,0008.94,0004.72,0003.88
2022-08-06 12:33:00,,0830.0,4.99,0.00,29.5,27.6,00.0,38.4,31.3,34.3,0000.0,0008.65,0004.65,0003.87
2022-08-06 12:34:00,,0830.0,5.01,0.00,29.5,27.7,00.0,38.4,31.4,34.3,0000.0,0008.60,0004.65,0003.88
2022-08-06 12:35:00,,0830.0,5.00,0.00,29.5,27.8,00.0,38.4,31.4,34.2,0000.0,0008.56,0004.64,0003.89
2022-08-06 12:36:00,,0830.0,5.00,0.00,29.5,28.0,00.0,38.4,31.4,34.2,0000.0,0008.49,0004.62,0003.88
2022-08-06 12:37:00,,0830.1,5.00,0.00,29.5,28.1,00.0,38.4,31.4,34.3,0000.0,0008.55,0004.63,0003.89
2022-08-06 12:38:00,,0830.1,5.00,0.00,29.5,28.2,00.0,38.4,31.5,34.2,0000.0,0008.47,0004.61,0003.89
2022-08-06 12:39:00,,0830.1,5.00,0.00,29.6,28.3,00.0,38.4,31.5,34.2,0000.0,0009.25,0004.65,0003.89
2022-08-06 12:40:00,,0830.1,5.00,0.00,29.6,28.4,00.0,38.4,31.5,34.2,0000.0,0009.35,0004.61,0003.88
2022-08-06 12:41:00,,0830.1,5.00,0.00,29.6,28.5,00.0,38.4,31.5,34.2,0000.0,0009.33,0004.61,0003.88
2022-08-06 12:42:00,,0830.1,5.01,0.00,29.6,28.5,00.0,38.4,31.6,34.2,0000.0,0009.74,0004.58,0003.88
2022-08-06 12:43:00,,0830.1,5.01,0.00,29.6,28.6,00.0,38.4,31.6,34.1,0000.0,0009.77,0004.55,0003.88
2022-08-06 12:44:00,,0830.0,5.00,0.00,29.7,28.7,00.0,38.4,31.6,34.1,0000.0,0009.85,0004.59,0003.88
2022-08-06 12:45:00,,0830.1,5.00,0.00,29.7,28.7,00.0,38.4,31.7,34.1,0000.0,0009.85,0004.60,0003.87
2022-08-06 12:46:00,,0830.1,4.99,0.00,29.7,28.8,00.0,38.5,31.7,34.0,0000.0,0009.81,0004.59,0003.87
2022-08-06 12:47:00,,0830.1,5.00,0.00,29.8,28.8,00.0,38.5,31.7,34.0,0000.0,0010.04,0004.57,0003.87
2022-08-06 12:48:00,,0830.1,5.00,0.00,29.8,28.7,00.0,38.5,31.7,34.0,0000.0,0010.67,0004.57,0003.86
2022-08-06 12:49:00,,0830.1,5.01,0.00,29.8,28.0,00.0,38.5,31.5,34.0,0000.0,0010.69,0004.57,0003.87
2022-08-06 12:50:00,,0830.1,4.99,0.00,29.7,27.2,00.0,38.4,31.3,34.1,0000.0,0009.80,0004.54,0003.86
2022-08-06 12:51:00,,0830.1,5.01,0.00,29.6,26.9,00.0,38.4,31.3,34.4,0000.0,0009.74,0004.55,0003.86
2022-08-06 12:52:00,,0830.1,5.00,0.00,29.5,26.9,00.0,38.3,31.1,34.7,0000.0,0009.68,0004.55,0003.86
2022-08-06 12:53:00,,0830.1,4.99,0.00,29.4,27.0,00.0,38.3,31.1,34.7,0000.0,0009.20,0004.55,0003.86
2022-08-06 12:54:00,,0830.2,5.01,0.00,29.4,27.2,00.0,38.3,31.1,34.7,0000.0,0009.49,0004.58,0003.87
2022-08-06 12:55:00,,0830.1,4.99,0.00,29.4,27.4,00.0,38.3,31.2,34.8,0000.0,0009.51,0004.58,0003.87
2022-08-06 12:56:00,,0830.1,5.00,0.00,29.4,27.6,00.0,38.3,31.2,34.8,0000.0,0009.61,0004.59,0003.87
2022-08-06 12:57:00,,0830.2,5.01,0.00,29.4,27.7,00.0,38.3,31.3,34.8,0000.0,0009.67,0004.61,0003.87
2022-08-06 12:58:00,,0830.2,5.00,0.00,29.4,27.9,00.0,38.3,31.3,34.8,0000.0,0009.50,0004.63,0003.87
2022-08-06 12:59:00,,0830.2,4.99,0.00,29.4,28.0,00.0,38.3,31.3,34.8,0000.0,0009.03,0004.64,0003.88
